When you browse on this site, cookies collect data to enhance your experience and personalize the content and advertising you see.
Visit our Privacy Policy to learn more. By continuing to use the site, you agree to this use of cookies and data.

Hourly Weather Miyadzaki

Today, 12 August, Wednesday

Time Temperature Precipitation Wind Pressure Humidity
00:00 +27°C° 0 mm 1 mps 754 mmHg 90%
01:00 +27°C° 0 mm 1 mps 754 mmHg 91%
02:00 +27°C° 0 mm 1 mps 754 mmHg 91%
03:00 +26°C° 0 mm 1 mps 753 mmHg 92%
04:00 +26°C° 0 mm 1 mps 753 mmHg 93%
05:00 +26°C° 0 mm 1 mps 753 mmHg 93%
06:00 +26°C° 0 mm 1 mps 754 mmHg 94%
07:00 +29°C° 0 mm 1 mps 754 mmHg 85%
08:00 +31°C° 0 mm 1 mps 754 mmHg 76%
09:00 +33°C° 0 mm 1 mps 754 mmHg 67%
10:00 +35°C° 0 mm 2 mps 754 mmHg 62%
11:00 +36°C° 0 mm 2 mps 754 mmHg 58%
12:00 +36°C° 0 mm 3 mps 754 mmHg 53%
13:00 +36°C° 0 mm 3 mps 754 mmHg 55%
14:00 +36°C° 0 mm 4 mps 753 mmHg 56%
15:00 +36°C° 0 mm 4 mps 753 mmHg 57%
16:00 +35°C° 0 mm 4 mps 753 mmHg 62%
17:00 +34°C° 0 mm 3 mps 753 mmHg 67%
18:00 +33°C° 0 mm 3 mps 753 mmHg 72%
19:00 +31°C° 0 mm 2 mps 753 mmHg 78%
20:00 +29°C° 0 mm 2 mps 753 mmHg 83%
21:00 +28°C° 0 mm 2 mps 753 mmHg 89%
22:00 +28°C° 0 mm 2 mps 753 mmHg 89%
23:00 +27°C° 0 mm 2 mps 753 mmHg 90%

Tomorrow, 13 August, Thursday

Time Temperature Precipitation Wind Pressure Humidity
00:00 +27°C° 0 mm 2 mps 753 mmHg 90%
01:00 +27°C° 0 mm 2 mps 752 mmHg 90%
02:00 +27°C° 0 mm 2 mps 752 mmHg 90%
03:00 +26°C° 0 mm 2 mps 752 mmHg 90%
04:00 +26°C° 0 mm 2 mps 752 mmHg 89%
05:00 +26°C° 0 mm 1 mps 752 mmHg 88%
06:00 +26°C° 0 mm 1 mps 752 mmHg 87%
07:00 +29°C° 0 mm 1 mps 752 mmHg 78%
08:00 +31°C° 0 mm 1 mps 752 mmHg 68%
09:00 +33°C° 0 mm 1 mps 752 mmHg 59%
10:00 +34°C° 0 mm 1 mps 752 mmHg 55%
11:00 +36°C° 0 mm 2 mps 752 mmHg 52%
12:00 +37°C° 0 mm 2 mps 751 mmHg 49%
13:00 +37°C° 0 mm 3 mps 751 mmHg 50%
14:00 +37°C° 0 mm 3 mps 751 mmHg 51%
15:00 +36°C° 0 mm 3 mps 750 mmHg 53%
16:00 +35°C° 0 mm 3 mps 750 mmHg 58%
17:00 +34°C° 0 mm 3 mps 750 mmHg 64%
18:00 +32°C° 0 mm 2 mps 750 mmHg 69%
19:00 +31°C° 0 mm 2 mps 750 mmHg 74%
20:00 +29°C° 0 mm 2 mps 750 mmHg 79%
21:00 +28°C° 0 mm 2 mps 750 mmHg 83%
22:00 +28°C° 0 mm 2 mps 750 mmHg 84%
23:00 +27°C° 0 mm 2 mps 750 mmHg 85%

Day after tomorrow, 14 August, Friday

Time Temperature Precipitation Wind Pressure Humidity
00:00 +27°C° 0 mm 2 mps 750 mmHg 86%
01:00 +27°C° 0 mm 2 mps 750 mmHg 87%
02:00 +26°C° 0 mm 2 mps 750 mmHg 87%
03:00 +26°C° 0 mm 2 mps 749 mmHg 87%
04:00 +26°C° 0 mm 2 mps 749 mmHg 89%
05:00 +26°C° 0 mm 2 mps 750 mmHg 90%
06:00 +26°C° 0 mm 2 mps 750 mmHg 91%
07:00 +28°C° 0 mm 2 mps 750 mmHg 82%
08:00 +30°C° 0 mm 2 mps 750 mmHg 73%
09:00 +32°C° 0 mm 2 mps 750 mmHg 64%
10:00 +34°C° 0 mm 2 mps 750 mmHg 59%
11:00 +36°C° 0 mm 3 mps 750 mmHg 54%
12:00 +37°C° 0 mm 3 mps 750 mmHg 49%
13:00 +37°C° 0 mm 3 mps 750 mmHg 49%
14:00 +37°C° 0 mm 4 mps 749 mmHg 49%
15:00 +37°C° 0 mm 4 mps 749 mmHg 50%
16:00 +36°C° 0 mm 4 mps 749 mmHg 56%
17:00 +34°C° 0 mm 4 mps 749 mmHg 62%
18:00 +33°C° 0 mm 3 mps 749 mmHg 68%
19:00 +30°C° 0 mm 3 mps 749 mmHg 74%
20:00 +29°C° 0 mm 2 mps 750 mmHg 79%
21:00 +28°C° 0 mm 2 mps 750 mmHg 84%
22:00 +27°C° 0 mm 2 mps 750 mmHg 85%
23:00 +27°C° 0 mm 2 mps 750 mmHg 86%

15 August, Saturday

Time Temperature Precipitation Wind Pressure Humidity
00:00 +27°C° 0 mm 2 mps 750 mmHg 86%
01:00 +26°C° 0 mm 2 mps 749 mmHg 86%
02:00 +26°C° 0 mm 2 mps 749 mmHg 87%
03:00 +26°C° 0 mm 2 mps 749 mmHg 87%
04:00 +26°C° 0 mm 2 mps 749 mmHg 88%
05:00 +26°C° 0 mm 2 mps 749 mmHg 89%
06:00 +26°C° 0 mm 2 mps 750 mmHg 90%
07:00 +28°C° 0 mm 2 mps 750 mmHg 82%
08:00 +30°C° 0 mm 2 mps 750 mmHg 75%
09:00 +32°C° 0 mm 2 mps 750 mmHg 67%
10:00 +34°C° 0 mm 2 mps 750 mmHg 62%
11:00 +35°C° 0 mm 2 mps 750 mmHg 57%
12:00 +37°C° 0 mm 2 mps 750 mmHg 51%
13:00 +37°C° 0 mm 3 mps 750 mmHg 52%
14:00 +37°C° 0 mm 3 mps 750 mmHg 52%
15:00 +37°C° 0 mm 4 mps 749 mmHg 52%
16:00 +35°C° 0 mm 4 mps 749 mmHg 59%
17:00 +34°C° 0 mm 3 mps 750 mmHg 65%
18:00 +33°C° 0 mm 3 mps 750 mmHg 72%
19:00 +30°C° 0 mm 3 mps 750 mmHg 77%
20:00 +29°C° 0 mm 2 mps 750 mmHg 83%
21:00 +28°C° 0 mm 2 mps 751 mmHg 89%
22:00 +28°C° 0 mm 2 mps 751 mmHg 90%
23:00 +27°C° 0 mm 1 mps 751 mmHg 90%

16 August, Sunday

Time Temperature Precipitation Wind Pressure Humidity
00:00 +27°C° 0 mm 1 mps 751 mmHg 91%
01:00 +27°C° 0 mm 1 mps 750 mmHg 91%
02:00 +27°C° 0 mm 1 mps 750 mmHg 92%
03:00 +26°C° 0 mm 2 mps 750 mmHg 92%
04:00 +26°C° 0 mm 2 mps 750 mmHg 93%
05:00 +26°C° 0 mm 2 mps 750 mmHg 94%
06:00 +26°C° 0 mm 2 mps 750 mmHg 94%
07:00 +28°C° 0 mm 2 mps 750 mmHg 86%
08:00 +30°C° 0 mm 2 mps 751 mmHg 77%
09:00 +32°C° 0 mm 2 mps 751 mmHg 69%
10:00 +34°C° 0 mm 2 mps 751 mmHg 62%
11:00 +36°C° 0 mm 2 mps 751 mmHg 55%
12:00 +37°C° 0 mm 1 mps 751 mmHg 49%
13:00 +37°C° 0 mm 2 mps 750 mmHg 51%
14:00 +37°C° 0 mm 2 mps 750 mmHg 53%
15:00 +36°C° 0 mm 2 mps 750 mmHg 55%
16:00 +35°C° 0.1 mm 2 mps 750 mmHg 62%
17:00 +33°C° 0.1 mm 1 mps 750 mmHg 70%
18:00 +32°C° 0.1 mm 1 mps 750 mmHg 77%
19:00 +30°C° 0 mm 1 mps 750 mmHg 81%
20:00 +29°C° 0 mm 1 mps 750 mmHg 86%
21:00 +26°C° 0 mm 0 mps 751 mmHg 91%
22:00 +27°C° 0 mm 1 mps 750 mmHg 92%
23:00 +27°C° 0 mm 1 mps 750 mmHg 92%

17 August, Monday

Time Temperature Precipitation Wind Pressure Humidity
00:00 +27°C° 0 mm 1 mps 750 mmHg 93%
01:00 +27°C° 0 mm 1 mps 750 mmHg 92%
02:00 +27°C° 0 mm 1 mps 750 mmHg 92%
03:00 +27°C° 0 mm 1 mps 750 mmHg 92%
04:00 +27°C° 0 mm 1 mps 750 mmHg 92%
05:00 +27°C° 0 mm 1 mps 750 mmHg 91%
06:00 +27°C° 0 mm 1 mps 750 mmHg 90%
07:00 +29°C° 0 mm 1 mps 750 mmHg 82%
08:00 +31°C° 0 mm 1 mps 750 mmHg 74%
09:00 +33°C° 0 mm 1 mps 751 mmHg 66%
10:00 +34°C° 0 mm 1 mps 751 mmHg 60%
11:00 +35°C° 0 mm 1 mps 751 mmHg 54%
12:00 +38°C° 0 mm 2 mps 751 mmHg 48%
13:00 +38°C° 0 mm 2 mps 750 mmHg 50%
14:00 +37°C° 0 mm 2 mps 750 mmHg 52%
15:00 +37°C° 0 mm 2 mps 750 mmHg 54%
16:00 +36°C° 0 mm 2 mps 750 mmHg 60%
17:00 +33°C° 0 mm 1 mps 750 mmHg 67%
18:00 +32°C° 0 mm 1 mps 750 mmHg 74%
19:00 +31°C° 0 mm 1 mps 750 mmHg 80%
20:00 +29°C° 0 mm 1 mps 750 mmHg 85%
21:00 +28°C° 0 mm 1 mps 751 mmHg 90%
22:00 +28°C° 0 mm 1 mps 751 mmHg 90%
23:00 +27°C° 0 mm 1 mps 751 mmHg 90%
Show more